Waarnemingen

Advertentie
Mijn weer
Huelva, Spanje (8383): temperatuur & dauwpunt: 12.02.2019 19:00:00 - 18.02.2019 19:00:00 (CET)Huelva, Spanje (8383): windsnelheid: 12.02.2019 19:00:00 - 18.02.2019 19:00:00 (CET)Huelva, Spanje (8383): windrichting: 12.02.2019 19:00:00 - 18.02.2019 19:00:00 (CET)Huelva, Spanje (8383): luchtdruk: 12.02.2019 19:00:00 - 18.02.2019 19:00:00 (CET)Huelva, Spanje (8383): zicht: 12.02.2019 19:00:00 - 18.02.2019 19:00:00 (CET)Huelva, Spanje (8383): neerslag: 12.02.2019 19:00:00 - 18.02.2019 19:00:00 (CET)
Datum & Tijd tt [°C] td [°C] ff [km/u] ff [kn] dd ppp [hPa] vv [km] rr [mm]
18.02.2019 19:00:00 13,1 11,3 8 4 N 1015,8 14 -
18.02.2019 18:00:00 14,0 11,3 5 3 ZW 1015,6 13 0,0
18.02.2019 17:00:00 14,0 11,9 9 5 WNW 1015,4 14 0,0
18.02.2019 16:00:00 14,1 11,1 4 2 WNW 1015,2 16 -
18.02.2019 15:00:00 13,4 11,5 11 6 ZZW 1015,6 16 0,4
18.02.2019 14:00:00 15,9 11,1 18 10 ZO 1015,6 17 0,0
18.02.2019 13:00:00 15,4 12,0 15 8 OZO 1015,9 10 -
18.02.2019 12:00:00 13,4 10,7 13 7 OZO 1016,2 15 0,6
18.02.2019 11:00:00 12,7 9,9 13 7 OZO 1016,0 11 0,2
18.02.2019 10:00:00 12,7 9,1 9 5 O 1015,9 9 -
18.02.2019 09:00:00 12,4 9,0 13 7 O 1015,5 17 0,0
18.02.2019 08:00:00 12,0 9,0 11 6 OZO 1015,2 18 0,0
18.02.2019 07:00:00 11,4 8,8 9 5 OZO 1015,4 16 -
18.02.2019 06:00:00 11,7 9,1 16 9 OZO 1015,6 18 0,0
18.02.2019 05:00:00 11,7 9,4 13 7 OZO 1016,1 16 0,0
18.02.2019 04:00:00 12,8 10,0 18 10 ZO 1016,8 16 -
18.02.2019 03:00:00 12,8 10,0 18 10 ZZO 1017,4 16 0,0
18.02.2019 02:00:00 12,7 10,4 15 8 ZZO 1017,9 16 0,0
18.02.2019 01:00:00 12,1 10,2 13 7 ZO 1018,2 15 -
18.02.2019 00:00:00 12,5 10,4 13 7 ZO 1018,9 14 0,0
17.02.2019 23:00:00 13,3 11,0 13 7 ZZO 1019,3 14 0,0
17.02.2019 22:00:00 14,2 11,5 16 9 ZZO 1019,3 13 -
17.02.2019 21:00:00 14,5 11,3 18 10 Z 1019,4 12 0,0
17.02.2019 20:00:00 14,9 10,7 18 10 Z 1019,4 15 0,0
17.02.2019 19:00:00 15,2 11,6 21 11 Z 1019,2 14 -
17.02.2019 18:00:00 16,3 11,7 16 9 Z 1019,3 14 0,0
17.02.2019 17:00:00 18,0 11,8 18 10 Z 1019,6 17 0,0
17.02.2019 16:00:00 18,8 10,6 18 10 Z 1019,8 19 -
17.02.2019 15:00:00 19,5 10,2 22 12 Z 1020,2 19 0,0
17.02.2019 14:00:00 18,8 8,2 18 10 OZO 1021,0 20 0,0
17.02.2019 13:00:00 17,9 8,5 15 8 ZO 1022,2 20 -
17.02.2019 12:00:00 16,5 8,2 9 5 ZO 1022,8 20 0,0
17.02.2019 11:00:00 12,5 8,2 11 6 ONO 1022,8 18 0,0
17.02.2019 10:00:00 9,3 6,6 8 4 NO 1023,1 18 -
17.02.2019 09:00:00 6,5 4,8 8 4 NNO 1022,9 18 0,0
17.02.2019 08:00:00 6,2 4,4 5 3 NNO 1022,4 18 0,0
17.02.2019 07:00:00 5,5 3,7 8 4 NNW 1022,4 17 -
17.02.2019 06:00:00 5,0 3,3 5 3 NO 1021,7 15 0,0
17.02.2019 05:00:00 5,9 4,1 4 2 N 1022,1 15 0,0
17.02.2019 04:00:00 7,1 4,6 8 4 N 1022,4 17 -
17.02.2019 03:00:00 7,3 5,4 8 4 NNO 1022,5 13 0,0
17.02.2019 02:00:00 7,4 6,2 5 3 NO 1022,6 10 0,0
17.02.2019 01:00:00 9,4 6,8 8 4 NNO 1023,0 12 -
17.02.2019 00:00:00 9,7 7,6 8 4 NO 1022,8 10 0,0
16.02.2019 23:00:00 10,2 7,6 5 3 NO 1023,1 12 0,0
16.02.2019 22:00:00 12,1 8,0 2 1 ZZW 1022,9 12 -
16.02.2019 21:00:00 12,5 8,2 8 4 ZW 1022,5 14 0,0
16.02.2019 20:00:00 14,3 8,0 8 4 ZZW 1022,0 18 0,0
16.02.2019 19:00:00 16,1 8,6 8 4 ZZW 1021,6 19 -
16.02.2019 18:00:00 18,2 8,5 13 7 Z 1021,2 20 0,0
16.02.2019 17:00:00 18,2 7,0 9 5 O 1021,2 20 0,0
16.02.2019 16:00:00 18,1 6,9 9 5 O 1021,2 20 -
16.02.2019 15:00:00 17,8 7,2 5 3 ONO 1021,7 20 0,0
16.02.2019 14:00:00 17,9 8,2 8 4 O 1022,5 19 0,0
16.02.2019 13:00:00 15,9 8,6 8 4 O 1023,5 19 -
16.02.2019 12:00:00 14,0 9,0 5 3 ONO 1023,6 18 0,0
16.02.2019 11:00:00 12,0 8,7 5 3 ONO 1023,3 17 0,0
16.02.2019 10:00:00 9,6 7,5 9 5 NO 1023,1 17 -
16.02.2019 09:00:00 8,4 6,5 5 3 NO 1022,5 17 0,0
16.02.2019 08:00:00 8,5 6,5 4 2 NNO 1022,3 17 0,0
16.02.2019 07:00:00 9,3 6,9 8 4 NO 1022,1 19 -
16.02.2019 06:00:00 9,2 7,0 8 4 NO 1021,9 18 0,0
16.02.2019 05:00:00 9,1 6,9 8 4 NO 1021,8 17 0,0
16.02.2019 04:00:00 8,8 6,4 9 5 NNO 1021,9 16 -
16.02.2019 03:00:00 9,8 6,9 5 3 NNO 1022,2 16 0,0
16.02.2019 02:00:00 11,5 7,6 5 3 O 1022,1 18 0,0
16.02.2019 01:00:00 10,8 8,2 9 5 O 1022,5 14 -
16.02.2019 00:00:00 11,1 7,8 8 4 NO 1022,4 14 0,0
15.02.2019 23:00:00 12,0 8,5 4 2 ONO 1022,4 14 0,0
15.02.2019 22:00:00 13,0 7,7 5 3 ONO 1021,9 17 -
15.02.2019 21:00:00 13,5 8,8 4 2 NW 1022,1 16 0,0
15.02.2019 20:00:00 15,3 8,3 5 3 ONO 1021,9 18 0,0
15.02.2019 19:00:00 17,1 8,8 5 3 O 1022,1 19 -
15.02.2019 18:00:00 - - - - - - - -
15.02.2019 17:00:00 19,4 8,1 15 8 O 1021,9 20 0,0
15.02.2019 16:00:00 19,3 8,3 15 8 O 1022,2 20 -
15.02.2019 15:00:00 18,9 8,8 13 7 O 1023,0 20 0,0
15.02.2019 14:00:00 18,1 8,6 15 8 O 1024,0 20 0,0
15.02.2019 13:00:00 17,4 8,5 15 8 O 1025,2 14 -
15.02.2019 12:00:00 15,9 8,9 16 9 O 1025,9 19 0,0
15.02.2019 11:00:00 13,2 8,5 16 9 ONO 1026,1 19 0,0
15.02.2019 10:00:00 9,5 7,3 8 4 NO 1026,5 13 -
15.02.2019 09:00:00 7,9 6,0 8 4 NO 1026,4 17 0,0
15.02.2019 08:00:00 6,1 4,7 5 3 NNO 1025,8 15 0,0
15.02.2019 07:00:00 6,3 4,9 9 5 NO 1025,9 25 -
15.02.2019 06:00:00 6,5 4,7 5 3 NO 1026,0 18 0,0
15.02.2019 05:00:00 7,1 5,4 9 5 NO 1026,0 18 0,0
15.02.2019 04:00:00 6,8 5,4 5 3 NO 1026,2 17 -
15.02.2019 03:00:00 7,1 5,2 8 4 NO 1026,6 17 0,0
15.02.2019 02:00:00 7,9 5,5 9 5 NO 1027,0 19 0,0
15.02.2019 01:00:00 9,5 6,4 5 3 ONO 1027,1 20 -
15.02.2019 00:00:00 9,5 5,9 9 5 NO 1026,9 20 0,0
14.02.2019 23:00:00 11,4 7,5 5 3 O 1027,1 20 0,0
14.02.2019 22:00:00 12,0 7,5 8 4 ZO 1026,6 20 -
14.02.2019 21:00:00 12,5 8,4 11 6 ZZO 1026,4 19 0,0
14.02.2019 20:00:00 13,7 8,7 11 6 ZZO 1026,1 19 0,0
14.02.2019 19:00:00 16,2 9,1 15 8 Z 1025,7 20 -
14.02.2019 18:00:00 18,4 9,5 21 11 Z 1025,7 20 0,0
14.02.2019 17:00:00 19,8 10,2 21 11 Z 1025,7 20 0,0
14.02.2019 16:00:00 20,2 10,0 21 11 Z 1026,0 20 -
14.02.2019 15:00:00 20,3 9,5 15 8 OZO 1026,6 20 0,0
14.02.2019 14:00:00 19,7 9,0 18 10 ZO 1027,2 20 0,0
14.02.2019 13:00:00 18,5 9,0 16 9 OZO 1028,0 18 -
14.02.2019 12:00:00 16,3 8,3 13 7 O 1028,5 19 0,0
14.02.2019 11:00:00 14,0 8,4 11 6 O 1028,6 16 0,0
14.02.2019 10:00:00 10,7 7,9 9 5 ONO 1028,5 10 -
14.02.2019 09:00:00 7,6 6,1 8 4 NO 1028,1 15 0,0
14.02.2019 08:00:00 6,6 5,1 9 5 NO 1027,7 17 0,0
14.02.2019 07:00:00 6,3 4,8 9 5 NO 1027,5 20 -
14.02.2019 06:00:00 6,5 4,7 8 4 NO 1027,3 20 0,0
14.02.2019 05:00:00 6,4 4,7 5 3 NO 1027,0 19 0,0
14.02.2019 04:00:00 6,5 5,1 5 3 NO 1027,3 15 -
14.02.2019 03:00:00 6,7 5,6 8 4 NO 1027,5 13 0,0
14.02.2019 02:00:00 7,6 5,7 8 4 NO 1027,8 15 0,0
14.02.2019 01:00:00 8,7 6,1 9 5 NO 1027,7 15 -
14.02.2019 00:00:00 9,8 7,0 8 4 NO 1027,8 14 0,0
13.02.2019 23:00:00 11,0 7,7 4 2 NO 1027,8 14 0,0
13.02.2019 22:00:00 11,7 8,7 2 1 WZW 1027,2 12 -
13.02.2019 21:00:00 12,8 8,5 4 2 ZW 1027,0 19 0,0
13.02.2019 20:00:00 13,6 7,6 5 3 ZW 1027,0 19 0,0
13.02.2019 19:00:00 17,1 8,0 5 3 ZZW 1026,7 19 -
13.02.2019 18:00:00 19,2 8,2 8 4 ZW 1026,6 20 0,0
13.02.2019 17:00:00 19,5 8,8 11 6 Z 1026,6 20 0,0
13.02.2019 16:00:00 19,4 7,5 4 2 O 1026,8 20 -
13.02.2019 15:00:00 - - - - - - - -
13.02.2019 14:00:00 18,1 7,8 8 4 O 1027,9 20 0,0
13.02.2019 13:00:00 17,0 7,6 9 5 O 1028,7 13 -
13.02.2019 12:00:00 15,4 7,9 11 6 O 1029,2 20 0,0
13.02.2019 11:00:00 13,4 8,5 11 6 ONO 1029,2 19 0,0
13.02.2019 10:00:00 11,2 7,7 8 4 ONO 1029,2 12 -
13.02.2019 09:00:00 7,9 6,2 8 4 NO 1029,1 16 0,0
13.02.2019 08:00:00 7,3 5,6 8 4 NO 1028,5 17 0,0
13.02.2019 07:00:00 7,3 5,4 8 4 N 1028,2 25 -
13.02.2019 06:00:00 7,7 5,5 8 4 NNO 1028,2 20 0,0
13.02.2019 05:00:00 7,9 5,5 5 3 NNO 1028,4 20 0,0
13.02.2019 04:00:00 8,9 6,2 8 4 NNO 1028,5 20 -
13.02.2019 03:00:00 9,3 6,6 9 5 NO 1028,7 20 0,0
13.02.2019 02:00:00 10,2 7,3 9 5 NO 1028,9 20 0,0
13.02.2019 01:00:00 10,3 7,4 8 4 NO 1029,1 19 -
13.02.2019 00:00:00 10,8 8,6 8 4 NNO 1029,3 14 0,0
12.02.2019 23:00:00 11,1 9,0 5 3 NNO 1029,3 14 0,0
12.02.2019 22:00:00 13,0 11,2 2 1 NNW 1028,9 12 -
12.02.2019 21:00:00 14,1 11,1 4 2 ZZW 1028,7 13 0,0
12.02.2019 20:00:00 15,3 10,7 9 5 ZW 1028,6 17 0,0
12.02.2019 19:00:00 17,9 10,0 5 3 ZZW 1027,9 19 -

tt = temperatuur
td = dauwpunt
ff = windsnelheid
dd = windrichting
ppp = luchtdruk
vv = zicht
rr = neerslag

Weerstations in de omgeving